Torna al catalogo

STARLINK-36905

AttivoComunicazioniVLEO
NORAD 68176·PAYLOAD·🇺🇸 United States

Lanciato Mar 14, 2026 da Vandenberg Space Force Base

Loading…

Prossimi Passaggi (prossime 24 ore)

TLE

AggiornatoSource: CelesTrak SupGP

Epoca: Sep 14, 2026, 23:28 UTC

1 68176C 26050K   26257.97826389  .00043458  00000+0  12843-2 0  2575
2 68176  53.1571 103.7145 0001230  86.5304  59.8421 15.34361064    18

Traccia STARLINK-36905 in tempo reale con AllMySat

Download on the App Store